Leshara, Nebraska
Current Conditions -  °F | °C
As of 9:35 AM on Saturday 20 Dec 2014 (Local Time) from KFET Reporting Station
Haze Haze  
Wind Chill: 29°   Ceiling: 600
Heat Index: 33°   Visibility: 4mi
Dew Point: 32°   Wind: 5mph
Humidity: 96%   Direction: 160°SSE
Pressure: 30.12"   Gusts: NA
Location:  41.33°N, 96.43°W
Report Text: KFET 201535Z AUTO 16004KT 4SM BR OVC006 01/00 A3012 RMK AO2 T00060000
Loading
Personal Weather Stations






























Interactive Weather Map New forecast layout! Learn more

10-Day Weather Forecast

Advertisements
Track Severe Weather on mobile